EHI
16 10 3 1 0 0 0 0 0 0 0 0 0 0 0 0 0 0 0 1 2 2 1 0 0 0 0 0 0 0 0 0 0 0 0 0 0 0 0 0 0 0 1 1 1 0 0 0 0
8 5 2 0 0 0 0 0 0 0 0 0 0 0 0 0 0 0 1 2 3 3 1 0 0 0 0 0 1 1 1 1 0 0 0 0 0 0 0 0 0 0 0 0 0 0 0 0 0
1 1 0 0 0 0 0 0 0 0 0 0 0 0 0 0 0 0 1 2 3 2 0 0 0 1 1 1 2 2 2 2 1 0 0 0 0 0 0 0 0 0 0 0 0 0 0 0 0
0 0 0 0 0 0 0 0 0 0 0 0 0 0 0 0 0 0 0 1 1 1 0 0 1 1 1 2 3 3 3 2 1 0 0 0 0 0 0 0 0 0 0 0 0 0 0 0 1
0 0 0 0 0 0 0 0 0 0 0 0 0 0 0 0 0 0 0 0 0 0 0 1 2 2 2 2 2 2 2 1 0 0 0 0 0 0 0 0 0 0 0 0 0 0 0 0 1
0 0 0 0 0 0 0 0 0 0 0 0 0 0 0 0 0 0 0 0 0 0 0 1 2 2 1 1 1 1 1 0 0 0 0 0 0 0 0 0 0 0 0 0 0 0 0 1 1
0 0 0 0 0 0 0 0 0 0 0 0 0 0 0 0 0 0 0 0 0 0 0 0 1 1 0 0 0 0 0 0 0 0 0 0 0 0 0 0 0 0 0 0 0 0 0 1 1
0 0 0 0 0 0 0 0 0 0 0 0 0 0 0 0 0 0 0 0 0 0 0 0 0 0 0 0 0 0 0 0 0 0 0 0 0 0 0 0 0 0 1 1 0 0 0 0 0
0 0 0 0 0 0 0 0 0 0 0 0 1 1 0 0 1 1 1 1 1 0 1 1 0 0 0 0 0 0 0 0 0 0 0 0 0 0 0 0 0 0 1 2 1 0 0 0 0
0 0 0 0 0 0 0 0 0 0 0 1 3 4 2 1 1 2 2 2 1 1 2 1 0 0 0 0 0 0 0 0 0 0 0 0 0 0 0 0 0 0 1 2 1 0 0 0 0
0 0 0 0 0 0 0 0 0 0 0 2 6 6 3 1 1 1 2 2 1 2 2 1 0 0 0 0 0 0 0 0 0 0 0 0 0 0 0 0 0 0 0 1 1 0 0 0 0
0 0 0 0 0 0 0 0 0 0 0 2 5 5 2 1 0 1 1 1 0 1 2 1 0 0 0 0 0 0 0 0 0 0 0 0 0 0 0 0 0 0 0 0 0 0 0 0 0
0 0 0 0 0 0 0 0 0 0 0 2 3 3 1 0 0 0 0 0 0 1 1 1 0 0 0 0 0 0 0 0 0 0 0 0 0 0 0 0 0 0 0 0 0 0 0 0 0
0 0 1 0 0 0 0 0 0 0 0 1 1 1 1 0 0 0 0 0 0 0 0 0 0 0 0 0 0 0 0 0 0 0 0 0 0 0 0 0 0 0 0 0 0 0 0 0 0
0 0 0 0 0 0 0 0 0 0 0 0 0 0 0 0 0 1 1 1 0 0 0 0 0 0 0 0 0 0 0 0 0 0 0 0 0 0 0 0 0 0 0 0 0 0 0 0 0
0 0 0 0 0 0 0 0 0 0 0 0 0 0 0 0 0 1 2 2 1 0 0 0 0 0 0 0 0 0 0 0 0 0 0 0 0 0 0 0 0 0 0 0 0 0 0 0 0
0 0 0 0 0 0 0 0 0 0 0 0 0 0 0 0 0 0 1 1 1 0 0 0 0 1 0 0 0 0 0 0 0 0 0 0 0 0 0 0 0 0 0 0 0 0 0 0 0
0 0 0 0 0 0 0 0 0 0 0 0 0 0 0 0 0 0 0 0 0 0 0 0 0 0 0 0 0 0 0 0 0 0 0 0 0 0 0 0 0 0 0 0 0 0 0 0 0
0 0 0 0 0 0 0 0 0 0 0 0 0 0 0 0 0 0 0 0 0 0 0 0 0 0 0 0 0 0 0 0 0 0 0 0 0 0 0 0 0 0 0 0 0 0 0 0 0
0 0 0 0 0 0 0 0 0 0 0 0 0 0 0 0 0 0 0 0 0 0 0 0 0 0 0 0 0 0 0 0 0 0 0 0 0 0 0 0 0 0 0 0 0 0 0 0 0
0 0 0 0 0 0 0 0 0 0 0 0 0 0 0 0 0 0 0 0 0 0 0 0 0 0 0 0 0 0 0 0 0 0 0 0 0 0 0 0 0 0 0 0 0 0 0 0 0
0 0 0 0 0 0 0 0 0 0 0 0 0 0 0 0 0 0 0 0 0 0 0 0 0 0 0 0 0 0 0 0 0 0 0 0 0 0 0 0 0 0 0 0 0 0 0 0 0
0 0 0 0 0 0 0 0 0 0 0 0 0 0 0 0 0 0 0 0 0 0 0 0 0 0 0 0 0 0 0 0 0 0 0 0 0 0 0 0 0 0 0 0 0 0 0 0 0
0 0 0 0 0 0 0 0 0 0 0 0 0 0 0 0 0 0 0 0 0 0 0 0 0 0 0 0 0 0 0 0 0 0 0 0 0 0 0 0 0 0 0 0 0 0 0 0 0
0 0 0 0 0 0 0 0 0 0 0 0 0 0 0 0 0 0 0 0 0 0 0 0 0 0 0 0 0 0 0 0 0 0 0 0 0 0 0 0 0 0 0 0 0 0 0 0 0
0 0 0 0 0 0 0 0 0 0 0 0 0 0 0 0 0 0 0 0 0 0 0 0 0 0 0 0 0 0 0 0 0 0 0 0 0 0 0 0 0 0 0 0 0 0 0 0 0
0 0 0 0 0 0 0 0 0 0 0 0 0 0 0 0 0 0 0 0 0 0 0 0 0 0 0 0 0 0 0 0 0 0 0 0 0 0 0 0 0 0 0 0 0 0 0 0 0
0 0 0 0 0 0 0 0 0 0 0 0 0 0 0 0 0 0 0 0 0 0 0 0 0 0 0 0 0 0 0 0 0 0 0 0 0 0 0 0 0 0 0 0 0 0 0 0 0
0 0 0 0 0 0 0 0 0 0 0 0 0 0 0 0 0 0 0 0 0 0 0 0 0 0 0 0 0 0 0 0 0 0 0 0 0 0 0 0 0 0 0 0 0 0 0 0 0
0 0 0 0 0 0 0 0 0 0 0 0 0 0 0 0 0 0 0 0 0 0 0 0 0 0 0 0 0 0 0 0 0 0 0 0 0 0 0 0 0 0 0 0 0 0 0 0 0
Wind_Speed
8 5 3 2 2 1 2 3 3 2 1 2 6 9 8 5 4 4 2 8 11 8 6 8 10 10 9 8 6 6 5 5 4 3 3 3 2 3 3 3 3 3 2 2 2 2 1 1 1
5 4 2 2 2 0 3 3 4 4 5 5 7 7 7 5 4 5 4 10 11 9 7 7 10 9 8 7 6 5 5 4 3 2 1 1 1 1 2 2 2 2 2 2 2 1 1 1 1
5 3 2 2 1 2 3 4 5 2 5 4 4 5 5 5 5 5 7 11 10 8 6 8 11 9 8 7 6 5 4 3 2 1 0 1 1 2 2 2 2 2 2 2 2 2 2 3 3
3 1 2 1 3 4 4 5 4 2 3 4 6 5 3 3 4 7 11 12 11 8 7 8 11 10 9 7 6 5 3 2 1 0 1 2 2 3 3 4 4 4 4 4 3 3 4 4 4
2 2 1 1 3 3 3 5 4 3 2 4 6 6 3 2 8 12 12 11 11 8 6 7 11 10 9 8 6 5 3 2 1 1 2 2 3 4 4 5 5 6 5 5 4 4 4 5 5
2 2 1 2 2 2 4 5 3 3 5 5 7 6 2 3 8 10 10 9 10 9 7 6 10 10 9 8 6 5 3 2 1 1 2 3 4 5 5 6 6 7 7 6 5 5 5 5 5
3 2 2 2 2 2 4 2 4 4 5 6 8 6 3 3 6 9 9 8 8 7 7 5 5 6 8 8 7 5 4 3 2 3 4 5 6 6 7 7 7 7 7 6 6 6 6 6 7
4 2 1 1 3 3 3 1 3 6 5 7 7 9 7 7 7 7 7 7 6 6 6 5 4 4 4 4 6 6 5 3 3 3 4 5 6 7 8 8 8 8 7 7 7 6 7 7 8
3 2 2 3 4 3 3 1 1 2 5 4 4 6 9 11 8 7 6 4 5 5 4 5 4 4 3 3 4 4 3 2 2 3 5 5 3 3 4 6 7 7 7 7 7 7 7 7 7
4 3 5 4 4 4 3 3 3 3 6 4 6 7 10 10 9 8 7 7 6 6 5 4 4 4 3 3 2 1 1 1 1 1 2 2 2 2 2 4 6 6 6 7 7 7 7 5 2
5 6 3 2 3 3 2 3 2 6 3 8 13 13 11 10 9 9 8 7 7 6 5 5 5 4 3 2 1 1 0 0 1 1 1 1 1 2 2 1 3 3 4 2 4 3 2 2 2
2 3 2 1 2 3 3 2 1 4 7 11 16 16 13 12 10 10 9 8 6 6 5 5 5 4 3 2 2 1 1 0 0 1 1 1 1 2 1 1 2 2 1 1 1 1 2 2 2
3 3 2 3 3 3 2 2 2 2 5 11 14 14 13 12 10 9 9 8 7 7 6 6 6 5 3 2 1 2 1 1 0 1 1 1 1 1 2 1 2 2 1 1 1 1 2 2 2
4 3 3 2 3 3 4 3 2 4 7 11 13 12 12 12 11 9 8 8 7 8 7 5 6 5 4 3 2 1 1 1 1 1 2 2 1 1 1 2 2 2 2 1 1 1 1 1 1
1 0 3 4 3 3 2 1 4 6 9 11 11 11 10 10 10 10 10 9 9 8 7 6 6 5 5 4 3 2 1 1 1 1 2 2 2 2 1 1 2 2 2 2 2 2 1 1 2
2 2 1 4 2 3 3 4 6 5 9 9 9 9 8 8 8 9 9 8 8 8 7 6 6 6 5 4 3 2 1 2 1 1 1 2 2 2 2 1 2 2 2 2 1 2 2 2 2
3 1 2 3 2 2 3 4 7 4 8 9 9 8 8 7 6 7 8 9 9 9 8 6 6 6 5 4 3 2 2 1 1 1 1 1 2 2 1 1 1 2 1 2 2 1 1 2 2
3 2 2 3 3 2 2 5 7 5 7 7 7 7 7 8 8 8 8 9 9 8 7 7 6 5 5 3 3 2 2 1 1 1 1 1 1 2 1 1 2 2 1 2 2 1 1 1 2
3 2 2 4 3 2 5 7 8 6 5 6 6 7 7 7 6 6 8 8 8 7 7 7 6 5 4 2 2 1 0 0 1 0 0 1 1 1 1 1 1 1 1 1 1 1 2 2 1
2 1 2 3 2 2 4 6 6 6 7 8 8 9 8 7 6 6 7 7 8 7 7 7 6 6 4 3 2 2 2 1 1 1 1 1 1 1 1 0 1 1 1 2 1 1 1 1 2
3 4 4 3 2 2 1 5 5 3 3 4 6 8 9 11 11 9 7 7 7 8 8 7 6 6 5 4 2 2 2 2 2 1 1 2 1 1 1 1 1 1 0 0 1 0 1 0 1
4 6 5 1 2 2 1 2 6 3 2 4 6 8 9 9 9 9 8 7 8 7 7 7 7 6 5 4 4 3 2 1 2 2 2 2 2 2 1 1 1 1 1 1 1 1 1 1 0
5 3 2 1 1 2 1 2 6 1 3 5 7 8 9 10 11 11 10 9 8 8 8 7 7 6 4 4 4 4 2 2 1 1 1 2 2 2 2 2 1 1 1 1 1 0 1 1 1
2 3 4 4 3 2 3 3 5 4 7 7 6 7 8 9 9 9 8 7 6 6 7 7 7 5 4 4 4 4 4 2 1 1 1 2 2 2 3 2 1 1 1 1 2 1 1 1 1
4 5 4 5 3 4 2 2 7 6 6 8 9 8 8 9 9 9 9 8 8 8 7 7 7 5 4 4 4 4 4 4 3 2 2 2 2 2 3 2 2 1 1 1 1 1 1 2 2
3 7 6 3 3 4 3 0 5 4 3 5 6 7 8 8 9 10 11 10 10 9 8 8 7 6 5 4 4 4 4 3 2 2 2 2 2 3 3 2 1 1 1 0 1 1 1 1 2
3 2 5 6 1 1 3 3 5 2 1 3 5 6 8 9 9 10 9 10 10 10 9 9 8 6 5 5 5 4 4 3 3 3 2 2 2 2 2 1 1 1 1 0 1 1 1 1 1
4 5 5 4 3 1 4 2 4 4 4 4 5 7 8 8 8 9 9 10 9 9 8 8 8 8 6 6 5 4 4 4 3 2 2 2 2 2 1 1 1 1 1 0 1 0 0 1 1
1 2 4 4 4 4 1 6 6 8 8 8 8 8 9 9 9 9 8 9 8 7 7 8 7 6 6 6 5 4 4 3 3 2 2 2 2 1 1 1 1 1 1 0 0 0 1 1 0
4 4 6 4 1 4 3 8 6 5 6 6 6 6 7 8 8 8 8 7 7 8 8 8 8 7 7 6 5 5 4 3 3 3 3 2 1 1 2 1 1 1 0 0 1 1 1 1 1
Wind_Direction
182 151 107 82 64 54 250 238 203 236 275 28 80 88 85 65 88 134 178 140 134 138 140 137 134 131 129 127 126 124 122 122 118 115 111 113 128 135 139 139 137 134 139 142 135 122 112 114 113
153 144 105 75 90 296 259 240 213 210 165 135 94 89 81 77 90 112 126 138 138 139 141 139 136 134 132 129 126 123 121 118 118 117 124 132 163 184 188 187 183 172 171 174 179 180 190 199 187
162 165 137 107 169 206 233 237 224 210 168 140 94 69 89 119 123 134 147 142 138 138 140 143 138 135 134 131 129 126 122 119 111 92 329 290 283 270 259 256 252 235 223 216 209 216 226 233 233
138 93 63 93 234 230 214 239 241 162 107 92 107 80 71 115 139 140 143 141 138 143 146 149 145 143 139 136 135 133 128 126 125 335 316 312 302 294 283 275 268 258 254 247 238 233 238 240 244
84 103 73 269 255 247 235 240 234 155 120 103 102 93 65 52 117 131 140 143 144 149 155 157 153 150 147 146 144 143 143 141 131 323 308 301 293 289 286 279 276 267 259 257 251 242 243 244 249
76 84 114 231 242 253 253 224 189 126 123 117 107 108 114 140 129 141 146 148 150 156 161 161 160 157 158 158 158 160 162 173 222 287 298 300 298 292 286 281 276 271 265 263 255 245 247 249 252
141 134 203 211 217 265 250 219 152 142 138 144 127 110 135 176 156 149 148 148 148 154 156 163 168 169 171 172 175 179 185 202 241 276 288 293 295 295 289 281 276 272 268 265 260 252 251 254 253
156 129 236 208 188 243 260 214 179 149 138 135 125 136 165 193 168 142 138 141 144 149 158 168 173 178 185 188 191 193 202 222 258 284 290 294 298 299 294 287 278 274 268 267 265 261 256 259 257
115 97 227 218 189 225 251 227 231 117 111 109 120 150 162 161 146 129 126 128 148 162 170 168 172 178 189 202 207 199 218 244 278 307 310 311 308 304 295 288 283 276 274 274 271 267 264 264 262
136 177 220 216 180 190 225 222 187 101 97 87 87 105 134 146 146 146 152 158 166 170 178 168 168 181 188 201 179 221 241 274 275 308 320 322 309 303 310 299 299 286 283 283 279 276 273 268 263
178 199 214 226 194 183 197 252 173 126 143 162 150 150 154 153 158 162 170 171 174 167 162 157 157 163 163 161 157 190 205 248 287 309 316 338 339 337 343 336 328 316 311 309 304 299 278 255 242
205 250 233 250 224 206 209 209 144 165 188 172 159 159 163 166 174 176 176 178 165 153 156 147 145 145 144 136 146 143 139 140 303 302 353 30 10 1 351 350 334 329 318 306 288 285 280 262 243
227 275 293 276 252 236 244 226 168 187 167 157 156 160 170 175 182 183 176 173 160 155 156 147 143 137 135 122 113 110 125 151 248 339 2 44 45 8 358 351 355 340 333 322 307 302 292 285 265
210 228 281 287 271 242 215 225 157 205 165 160 163 170 178 180 181 177 170 170 164 160 159 151 141 141 132 123 113 112 115 107 68 29 21 40 62 50 23 5 358 350 345 339 326 325 310 294 291
197 357 315 283 267 258 157 273 209 202 167 168 173 177 181 185 179 178 177 172 167 163 158 151 145 134 124 115 110 110 104 94 77 51 40 48 60 61 52 27 1 338 345 360 2 355 354 344 333
74 96 264 276 248 260 138 241 246 201 170 181 183 180 181 186 183 182 175 166 163 156 152 150 140 129 119 111 107 107 98 87 72 57 43 46 47 48 48 31 352 337 357 12 8 9 358 346 334
54 129 240 288 272 234 161 230 257 212 184 188 187 182 180 178 178 178 171 164 163 158 150 143 136 133 126 116 107 100 85 75 65 58 46 34 39 46 50 24 338 347 5 6 354 16 6 338 328
177 178 216 246 255 205 203 237 255 232 199 198 191 185 182 179 182 171 165 160 155 154 146 140 136 134 125 108 88 67 53 35 39 41 33 37 28 33 32 2 349 2 8 357 355 353 356 336 316
151 157 217 238 235 202 232 243 250 240 206 198 191 189 190 186 171 162 157 149 142 144 141 142 139 143 129 112 109 102 73 331 4 329 18 25 14 20 31 1 351 3 7 331 340 356 3 348 354
150 161 252 273 261 212 243 262 257 230 209 195 186 182 180 166 156 164 154 148 148 151 148 145 146 147 145 145 155 162 164 209 235 302 353 333 329 331 13 33 321 330 358 359 6 44 34 349 25
190 195 213 224 339 344 340 318 292 267 209 191 183 176 172 172 170 172 160 155 152 154 157 150 149 146 146 139 113 77 54 31 13 345 323 302 287 293 314 291 262 294 183 291 301 121 123 21 349
212 221 204 199 62 308 121 287 293 268 209 199 188 174 177 176 171 170 166 165 165 164 153 146 147 148 149 136 127 133 143 182 234 241 262 287 293 295 288 283 267 256 223 232 254 161 150 128 28
203 200 177 181 111 337 314 155 287 278 199 213 199 184 182 179 175 176 175 173 167 158 151 150 146 150 155 145 142 143 157 201 239 256 282 298 301 298 290 287 283 259 226 223 236 213 153 149 155
148 64 41 50 69 316 243 155 266 231 208 205 202 189 181 176 176 174 169 158 155 154 150 149 147 158 162 152 153 160 170 177 179 261 277 291 295 298 294 291 290 262 236 230 223 206 181 171 160
93 83 42 16 16 265 264 152 246 247 216 192 188 186 180 174 171 167 166 166 164 164 161 157 155 166 171 158 164 174 179 177 188 217 234 252 277 286 286 290 281 272 257 237 211 190 192 182 172
163 137 147 170 224 286 343 269 268 277 209 170 166 169 169 176 178 178 178 174 173 172 168 164 165 171 174 169 174 176 179 179 201 215 222 232 241 253 267 273 268 267 279 240 161 149 190 175 182
134 165 169 137 146 12 328 319 323 355 84 145 157 164 181 187 188 187 182 179 178 177 177 173 171 173 181 180 176 178 186 190 205 224 232 242 249 252 257 252 253 283 287 197 126 122 174 156 179
153 150 95 97 110 17 323 280 238 237 229 209 192 192 199 194 191 190 187 187 186 183 179 173 172 177 182 183 185 184 196 204 207 211 238 253 259 261 242 238 251 290 300 284 130 122 187 142 189
136 105 107 110 143 140 265 275 234 212 210 206 208 203 196 193 193 192 193 192 186 178 174 176 178 176 181 188 190 186 200 207 206 214 234 242 248 253 234 226 216 247 280 261 172 187 146 140 177
172 171 141 136 209 152 165 268 277 223 221 207 209 210 201 196 195 192 189 182 182 183 183 182 182 183 189 187 185 192 198 198 203 221 240 232 228 239 228 191 166 195 219 191 170 209 176 172 196